www.pogodaiklimat.ru

Погода и климат >> Архив погоды >> Тринидад и Тобаго >> Аэропорт Пиарко


ПОГОДА в Аэропорту Пиарко

  • Прогноз погоды в Аэропорту Пиарко
  • Монитор погоды в Аэропорту Пиарко

АРХИВ ПОГОДЫ в Аэропорту Пиарко

Время (UTC), дата Ветер
(напр.,м/с)
 
Видим.   Явления Облачность Т
(С)
Тd
(С)
f
(%)
Тe
(С)
Тes
(С)
Комфортность P
(гПа)
Po
(гПа)
Тmin
(С)
Tmax
(С)
R
(мм)
R24
(мм)
S
(см)
03 12.08 штиль 0 20 км мгла 4/4 480 м
[Cu med, cong]
+26.8 +24.1 85 +37 +37 очень
душно
1015.0 1012.5
06 12.08 штиль 0 20 км мгла 3/3 480 м
[Cu med, cong]
+26.4 +23.9 86 +36 +36 очень
душно
1012.8 1010.3 +23.5 +31.8
09 12.08 штиль 0 18 км осадки на расстоянии {ливн. осадки} 8/8 480 м
[Cu Sc]
+25.1 +24.1 94 +35 +35 очень
душно
1013.0 1010.5
12 12.08 В 6 14 км слаб. ливневой дождь 8/5 540 м
[Cu Sc Ac As Ci sp]
+26.7 +25.0 90 +38 +39 очень
душно
1014.2 1011.7 +24.5 +31.8 4
15 12.08 Ю 10 9000 м слаб. ливневой дождь 9/5 540 м
[Cb cap Ac As Ci ing]
+26.7 +24.2 86 +37 +37 очень
душно
1014.6 1012.1
18 12.08 В 8 9000 м осадки на расстоянии {ливн. осадки} 9/8 300 м
[Cb cap Ac As Ci sp]
+27.0 +25.2 90 +39 +40 очень
душно
1012.9 1010.4 +24.5 +30.4 9
21 12.08 В 3 6000 м осадки на расстоянии {гроза, ливн. осадки} 9/6 360 м
[Cu Sc Ac As Cs]
+26.1 +24.8 93 +37 +38 очень
душно
1011.8 1009.3
00 13.08 В 4 16 км осадки на расстоянии {гроза, ливн. осадки} 9/4 480 м
[Cu Sc Ac As Cs]
+25.2 +23.7 91 +34 +34 очень
душно
1013.2 1010.7 +24.5 +30.4 12
03 13.08 штиль 0 15 км осадки на расстоянии {гроза, ливн. осадки} 9/9 150 м
[Cu Sc]
+24.9 +23.5 92 +34 +34 очень
душно
1014.7 1012.2
06 13.08 штиль 0 18 км осадки на расстоянии {гроза} 9/6 450 м
[Cu Sc Ac As Ci sp]
+25.4 +24.3 94 +35 +35 очень
душно
1012.5 1010.0 +24.5 +30.4
09 13.08 В 5 25 км 9/1 450 м
[Cu Sc Ac As Ci sp]
+25.3 +24.3 94 +35 +35 очень
душно
1012.3 1009.8
15 13.08 В 16 20 км мгла 5/4 750 м
[Cu med, cong Ac cuf Ci ing]
+30.3 +23.3 66 +41 +41 опасность
перегрева
1014.2 1011.7
18 13.08 В 14 18 км мгла 6/4 420 м
[Cb cap Cs]
+31.3 +22.5 60 +41 +41 опасность
перегрева
1012.5 1010.0 +24.7 +31.6
21 13.08 ЮВ 10 18 км мгла 9/4 540 м
[Cu Sc Ac As Cs]
+29.7 +23.3 69 +40 +40 очень
душно
1012.6 1010.1
00 14.08 ЮВ 7 15 км в посл. час ливневой дождь 9/3 540 м
[Cu Sc Ac lent Cs]
+26.3 +23.6 85 +36 +36 очень
душно
1014.1 1011.6 +24.7 +31.6 0.3
03 14.08 штиль 0 15 км мгла 9/3 540 м
[Cu Sc Ac lent Cs]
+26.3 +24.6 90 +37 +37 очень
душно
1015.8 1013.3
06 14.08 штиль 0 15 км мгла 6/4 480 м
[Cu Sc Ci sp]
+25.5 +23.8 90 +35 +35 очень
душно
1014.4 1011.9 +24.7 +31.6
09 14.08 штиль 0 15 км мгла 6/1 450 м
[Cu med, cong Ci sp]
+24.8 +23.3 91 +33 +33 очень
душно
1013.8 1011.3
12 14.08 В 7 10 км осадки на расстоянии 9/3 360 м
[Cb cap Ac As Ci sp]
+28.0 +25.6 87 +41 +42 опасность
перегрева
1015.6 1013.1 +24.6 +31.6
15 14.08 ЮВ 10 16 км осадки на расстоянии {ливн. осадки} 9/5 360 м
[Cb cap Ac As Cs]
+31.4 +23.5 63 +42 +43 опасность
перегрева
1015.3 1012.8
18 14.08 В 5 17 км слаб. дождь {гроза} 9/1 150 м
[Cb cap Ac As Cs]
+25.8 +23.6 88 +35 +40 очень
душно
1014.0 1011.5 +24.6 +31.6 1
21 14.08 ЮВ 5 20 км дым {дождь} 10/1 270 м
[Cu Sc Ac As Cs]
+26.5 +23.8 85 +36 +37 очень
душно
1013.4 1010.9
00 15.08 В 5 15 км {дождь} 9/3 360 м
[Cu Sc Ac As Cs]
+25.8 +23.5 87 +35 +35 очень
душно
1014.8 1012.3 +24.6 +31.6 0.9
03 15.08 штиль 0 20 км 9/1 480 м
[Cu Sc Ac As Cs]
+25.5 +23.8 90 +35 +35 очень
душно
1015.9 1013.4
06 15.08 штиль 0 20 км 9/1 360 м
[Cu Sc Ac As Ci sp]
+25.0 +23.4 91 +34 +34 очень
душно
1014.5 1012.0 +24.6 +31.6
09 15.08 штиль 0 20 км дымка 9/1 480 м
[Cu med, cong Ac As Cs]
+24.9 +23.6 92 +34 +34 очень
душно
1014.3 1011.8
12 15.08 СВ 3 4000 м осадки на расстоянии {ливн. осадки} 9/6 300 м
[Cb cap Ac As Ci sp]
+26.2 +24.6 91 +37 +38 очень
душно
1015.9 1013.4 +24.8 +31.6 8
15 15.08 Ю 3 8000 м слаб. ливневой дождь 10/9 400 м
[Cu Sc Ac As]
+27.0 +25.3 90 +39 +40 очень
душно
1016.4 1013.9
18 15.08 СВ 5 15 км осадки на расстоянии {ливн. осадки} 9/3 300 м
[Cu Sc Ac As]
+26.5 +24.2 87 +37 +39 очень
душно
1014.4 1011.9 +24.5 +27.3 11
00 16.08 штиль 0 14 км дымка {ливн. осадки, дождь} 9/1 480 м
[Cu Sc Ac trans Cs]
+25.7 +24.1 91 +36 +36 очень
душно
1014.5 1012.0 +24.5 +27.3
03 16.08 штиль 0 14 км пыль 9/1 480 м
[Cu hum Ac As Cs]
+25.4 +24.6 95 +36 +36 очень
душно
1015.4 1012.9
09 16.08 штиль 0 14 км пыль 1/1 480 м
[Cu med, cong Ac trans Ci sp]
+24.8 +23.2 91 +33 +33 очень
душно
1014.0 1011.5
12 16.08 В 6 9000 м пыль 3/1 500 м
[Cu hum Ci sp]
+28.2 +24.9 82 +40 +42 очень
душно
1015.1 1012.6 +24.4 +28.2
15 16.08 В 11 12 км пыль 6/3 900 м
[Cu med, cong Ci sp]
+31.7 +22.8 59 +41 +42 опасность
перегрева
1015.3 1012.8
18 16.08 В 14 12 км осадки на расстоянии 9/1 750 м
[Cu med, cong Ac cuf Ci sp]
+32.0 +22.1 56 +41 +41 опасность
перегрева
1013.5 1011.0 +24.4 +32.5
21 16.08 В 11 12 км осадки на расстоянии 9/3 480 м
[Cb cap Ac cuf Ci sp]
+30.6 +23.3 65 +41 +41 опасность
перегрева
1013.4 1010.9 110
00 17.08 В 5 12 км мгла 9/1 540 м
[Cu Sc Ac trans Ci sp]
+27.7 +24.0 80 +38 +38 очень
душно
1014.1 1011.6 +22.4 +32.7
06 17.08 штиль 0 14 км осадки на расстоянии 9/8 480 м
[Sc diur, vesp Ac As Ci sp]
+25.5 +24.0 91 +35 +35 очень
душно
1013.9 1011.4 +24.4 +32.7
09 17.08 штиль 0 10 км пыль 9/4 360 м
[Cu Sc Ac As Ci sp]
+25.0 +23.8 93 +34 +34 очень
душно
1014.3 1011.8
12 17.08 штиль 0 10 км пыль 9/3 450 м
[Cu Sc Ac As Ci sp]
+26.6 +24.7 89 +38 +41 очень
душно
1015.4 1012.9 +24.9 +32.7
15 17.08 ЮВ 8 14 км осадки на расстоянии {ливн. осадки} 9/8 600 м
[Cu Sc Ac lent Cs]
+30.4 +23.3 66 +41 +42 опасность
перегрева
1015.4 1012.9
18 17.08 СЗ 9 16 км осадки на расстоянии {ливн. осадки} 9/6 480 м
[Cb calv Ac cuf Cs]
+29.4 +23.7 71 +40 +41 очень
душно
1013.6 1011.1 +24.9 +32.2 0.0
21 17.08 В 7 20 км осадки на расстоянии 8/3 540 м
[Cb cap Ac lent Ci sp]
+30.1 +23.2 67 +41 +41 опасность
перегрева
1012.7 1010.2
00 18.08 В 4 20 км зарница 6/1 420 м
[Cb cap Ac cuf Ci sp]
+27.1 +23.7 82 +37 +37 очень
душно
1014.3 1011.8 +24.9 +32.2
03 18.08 ЮВ 5 7000 м осадки на расстоянии {ливн. осадки} 9/8 420 м
[Cb cap Ac As Ci sp]
+25.7 +23.7 89 +35 +35 очень
душно
1016.0 1013.5
06 18.08 штиль 0 25 км {ливн. осадки} 9/1 480 м
[Cu Sc Ac As Ci sp]
+24.6 +23.4 93 +33 +33 очень
душно
1014.8 1012.3 +24.4 +32.2
09 18.08 штиль 0 22 км дымка 9/1 420 м
[Cu Sc Ac As Ci sp]
+24.3 +23.1 93 +32 +32 очень
душно
1014.3 1011.8
12 18.08 штиль 0 25 км дымка 1/1 540 м
[Cu Sc Ci ing]
+27.5 +25.5 89 +40 +47 очень
душно
1015.0 1012.5 +24.1 +32.2 7
15 18.08 В 8 15 км осадки на расстоянии 5/5 600 м
[Cu Sc Ci sp]
+31.3 +24.1 66 +43 +45 опасность
перегрева
1015.3 1012.8
18 18.08 ЮВ 7 20 км осадки на расстоянии 8/8 420 м
[Cu med, cong Ci sp]
+32.3 +23.8 61 +44 +45 опасность
перегрева
1013.3 1010.8 +24.1 +32.3
21 18.08 ЮВ 6 25 км осадки на расстоянии 6/5 420 м
[Cu Sc Ci sp]
+30.6 +22.5 62 +40 +40 очень
душно
1012.9 1010.4
00 19.08 ЮВ 4 18 км 6/3 420 м
[Cu med, cong Ci sp]
+26.5 +23.3 83 +36 +36 очень
душно
1014.8 1012.3 +24.1 +32.6

 

Местоположение метеостанции Аэропорт Пиарко (Тринидад и Тобаго): широта 10.62 долгота -61.34 высота над уровнем моря 15 м.

В архиве по умолчанию представлена погода в Аэропорту Пиарко за последнюю неделю. Архивные данные за месяц целиком и за предыдущие месяцы, начиная с января 2011 года, Вы можете получить, выбрав интересующий диапазон дат из раскрывающегося списка и нажав кнопку "Ввод!".


*Определитесь, кто Вы:
робот инопланетянин человек

Внимание! Время в таблицах - всемирное. Для получения местного времени необходимо прибавить поправку, которая равна -4 ч.

Смотрите также архив погоды в соседних городах и на ближайших метеорологических станциях:

Погода в Краун-Пойнте (Тринидад и Тобаго) (81 км)
Погода в Гуирии (Венесуэла) (106 км)
Погода в Аэропорту Морис Бишоп (Гренада) (161 км)
Погода в Мэтьюрине (Венесуэла) (223 км)
Погода в Арнос Вейл (Сент-Винсент и Гренадины) (280 км)
Погода в Порламаре (Венесуэла) (288 км)
Погода в Кумане (Венесуэла) (311 км)
Погода в Мабаруме (Гайана) (319 км)
Погода в Грантли Адамсе (Барбадос) (339 км)
Погода в Аэропорту Хеванорра (Сент-Люсия) (349 км)

Пояснения к столбцам:

Ветер - указаны скорость ветра в м/с - средняя за 10 мин, порывы в срок и между сроками (в фигурных скобках) и направление, откуда дует ветер: С - северный, СВ - северо-восточный, В - восточный, ЮВ - юго-восточный, Ю - южный, ЮЗ - юго-западный, З - западный, СЗ - северо-западный.
Видимость - горизонтальная дальность видимости в метрах или километрах. При видимости от 1 до 10 км при отсутствии осадков обычно наблюдается дымка, при ухудшении видимости до 1 км и менее - туман. В сухую погоду видимость может ухудшаться дымом, пылью или мглою.
Явления - указаны атмосферные явления, наблюдавшиеся в срок или в последний час перед сроком; фигурными скобками обозначены явления, наблюдавшиеся между сроками (за 1-3 часа до срока); квадратными скобками обозначены град или гололедные отложения с указанием их диаметра в мм.
Облачность - указаны через наклонную черту общая и нижняя облачность в баллах и высота нижней границы облаков в метрах; квадратными скобками обозначены формы облаков: Ci - перистые, Cs - перисто-слоистые, Cc - перисто-кучевые, Ac - высококучевые, As - высокослоистые, Sc - слоисто-кучевые, Ns - слоисто-дождевые, Cu - кучевые, Cb - кучево-дождевые. Подробнее классификацию облаков см. в Атласе облаков (PDF).
T - Температура воздуха - температура, измеренная на высоте 2 м над землей.
Td - Температура точки росы - температура, при понижении до которой содержащийся в воздухе водяной пар достигнет насыщения.
f - Относительная влажность воздуха - влажноcть воздуха, измеренная на высоте 2 м над землей.
Te - Эффективная температура - температура, которую ощущает одетый по сезону человек в тени. Характеристика душности погоды. При расчете учитывается влияние влажности воздуха и скорости ветра на теплоощущения человека.
Tes - Эффективная температура на солнце - температура, которую ощущает человек, с поправкой на солнечный нагрев. Характеристика знойности погоды. Зависит от высоты солнца над горизонтом, облачности и скорости ветра. Ночью, в пасмурную погоду, а также при ветре 12 м/с и более поправка равна нулю.
P - Атмосферное давление - приведенное к уровню моря атмосферное давление.
Po - Атмосферное давление - измеренное на уровне метеостанции атмосферное давление.
Tmin - Минимальная температура - минимум температуры воздуха на высоте 2 м над землей.
Tmax - Максимальная температура - максимум температуры воздуха на высоте 2 м над землей.
R - Количество осадков - Количество выпавших осадков за период времени, мм. При наведении курсора мыши на число - период времени, за который выпало указанное количество осадков.
R24 - Количество осадков - Количество выпавших осадков за 24 часа, мм.
S - Снежный покров - Высота снежного покрова, см. При наведении курсора мыши на число - состояние снежного покрова и степень покрытия местности в баллах.